Погода Шамахы

Погода Шамахы : погода сейчас, прогноз погоды и архив. Всё, что Вы хотите узнать о погоде Шамахы!

Поиск расширенной информации на нашем сайте:

Другие новости

Новости СМИ2

Главная страница сайта

Новости сайта

03.07.2017

Напоминаем, что на нашем специализированном сайте Метеоцентр.Азия вы можете получить высокодетализированные автоматические прогнозы погоды по пунктам России, СНГ и мира в авиационном формате (включающие направление и скорость ветра, видимость, явления погоды, количество и форму облачности, нижнюю и верхнюю границу облачности).


Погода Шамахы - сегодня

Время (UTC), дата Ветер
(°,м/с) 
Видим.   Явления Облачность Т
(°С)
Тd
(°С)
f(%) Тe
(°С)
Pmin
(гПа)
dP
(гПа)
Po
(мм)
O2
(г/м3)
Тmin Tmax R s Состояние
почвы
15 23.07.17 060 (СВ) 20000 м    6/0 средняя 
[Ac trans]
+29.5 +14.8 41 +40  1007.9  0.8  688  247           
18 23.07.17 320 (СЗ) 20000 м    3/0 верхняя 
[Ci fib]
+26.5 +12.2 41 +33  1009.7  0.5  688  250    +32.4       
21 23.07.17 240 (ЮЗ) 20000 м    ясно 
+24.3 +14.2 53 +34  1010.2  -0.1  688  252           
00 24.07.17 250 (З) 20000 м    ясно 
+21.8 +12.7 56 +29  1010.6  -0.4  688  254           
03 24.07.17 270 (З) 20000 м    8/8 600 м 
[Sc]
+21.4 +14 63 +31  1011.6  0.6  689  254           
06 24.07.17 230 (ЮЗ) 20000 м    ясно 
+27.3 +13.9 44 +36  1010.3  0.1  689  250           
09 24.07.17 180 (Ю) 20000 м    5/0 верхняя 
[Ci fib]
+28.1 +14.3 43 +38  1010.2  0.5  689  249           
12 24.07.17 210 (ЮЗ) 20000 м    6/6 600 м 
[Sc]
+28.7 +13.4 39 +37  1009.8  -0.4  689  249           
15 24.07.17 050 (СВ) 20000 м    6/6 600 м 
[Sc]
+26.2 +15 50 +37  1010  -0.5  689  250           
18 24.07.17 250 (З) 20000 м    5/0 верхняя 
[Ci fib]
+23.6 +14.9 58 +34  1010.4  -0.2  689  252    +29.5       
21 24.07.17 280 (З) 20000 м    5/0 верхняя 
[Ci fib]
+21.5 +15.1 67 +33  1011.1  689  254           
00 25.07.17 290 (З) 20000 м    ясно 
+20.7 +13.4 63 +29  1011.4  -0.3  688  255           
03 25.07.17 350 (С) 20000 м    3/0 верхняя 
[Ci fib]
+21.2 +14.4 65 +31  1011.4  688  254           
09 25.07.17 260 (З) 20000 м    3/3 1000 м 
[Cu hum]
+27.6 +14.1 44 +37  1006.9  -0.8  687  249           
12 25.07.17 200 (Ю) 20000 м    3/3 1000 м 
[Cu hum]
+28.8 +14.7 42 +39  1005.9  -1  686  247           
15 25.07.17 260 (З) 20000 м    6/6 1000 м 
[Cu med, cong]
+27.6 +14.3 44 +37  1005.3  -0.6  686  248           
21 25.07.17 310 (СЗ) 20000 м    ясно 
+21.1 +15.8 72 +34  1009.3  0.7  687  253           
00 26.07.17 340 (С) 20000 м    ясно 
+20.3 +16.1 77 +34  1008.9  -0.4  687  254           
03 26.07.17 280 (З) 20000 м    3/0 верхняя 
[Ci fib]
+20.8 +16.2 75 +34  1009.3  0.4  687  254           
06 26.07.17 240 (ЮЗ) 20000 м    5/0 верхняя 
[Ci fib]
+24.4 +16.6 62 +39  1008.3  0.3  687  250           
09 26.07.17 200 (Ю) 20000 м    8/0 средняя 
[Ac trans]
+26.9 +14.4 46 +37  1007.4  -0.3  687  249           
12 26.07.17 260 (З) 20000 м    9/0 средняя 
[Ac trans]
+29.2 +14.8 42 +40  1006.5  -0.2  687  247           
15 26.07.17 250 (З) 20000 м    4/0 верхняя 
[Ci fib]
+27.7 +14.9 46 +39  1006.6  0.1  687  248           
18 26.07.17 270 (З) 20000 м    ясно 
+23.1 +14.1 57 +33  1009.3  0.7  688  252    +30.4       
21 26.07.17 320 (СЗ) 20000 м    ясно 
+20.8 +15.1 70 +32  1011.2  0.8  688  254           
Время (UTC), дата Ветер
(°,м/с) 
Видим.   Явления Облачность Т
(°С)
Тd
(°С)
f(%) Тe
(°С)
Pmin
(гПа)
dP
(гПа)
Po
(мм)
O2
(г/м3)
Тmin Tmax R s Состояние
почвы

Для получения пояснительной информации подведите курсор к названию столбца.

ПОГОДА Шамахы - архив

Всё, что Вы хотите узнать о погоде Шамахы - удобно и подробно!

Выберите нужную дату (начиная с 1 января 2015* года) и нажмите кнопку "Найти".
Будут отображены архивные сводки погоды по пункту Шамахы, начиная с указанной даты.


Отображать данные в формате CSV (для использования в таблицах Excel)


Внимание! Наш архив погоды предназначен исключительно для личного некоммерческого использования в познавательных целях. Если Вам необходимы официальные справки о состоянии погоды (для производственных, юридических, коммерческих и т.п. целей), обращайтесь в органы Росгидромета.

*Примечание: данная дата относится к архиву по метеостанциям СССР (Россия, СНГ, Балтия).
Архив по метеостанциям Зарубежной Европы и Азии (кроме Китая) хранится 10 дней, по другим регионам земного шара (Китай, Африка, Америка, Австралия, Океания) - 1 день.

Шамахы - район местоположения метеостанции


Название, широта, долгота, высота метеостанции:
Шамахы 40.6°ш. 48.6°д. 749 м над ур. моря [Азербайджан]

Дополнительная информация

В oтличие oт бoльшинства пoгoдных сайтoв мы публикуем пoдрoбную метеoинфoрмацию в детальнoм прoфессиoнальнoм фoрмате.

Характеристики температуры и влажнoсти вoздуха измеряются на высoте 2 м в тени вдали oт зданий и деревьев.
Скoрoсть ветра измеряется на высoте 10 м (на урoвне рoста челoвека скoрoсть ветра ниже в 1.5-2 раза). Если метеoстанция нахoдится в гoрoде или в лесу, тo скoрoсть ветра занижена на 2-4 м/с пo сравнению с oткрытым местoм. Скoрoсть ветра над акватoриями крупных рек и oзёр, а также на вершинах хoлмoв на 2-5 м/с выше, чем в oбычных услoвиях.
Атмoсфернoе давление в разных тoчках местнoсти мoжет значительнo oтличаться oт давления на метеoстанции, в зависимoсти oт услoвий рельефа (при пoдъёме на 10 м давление пoнижается примернo на 1 мм рт.ст.).